Regional Weather Roundup
Issued by NWS

Home | Current Version | Previous Version | Graphics & Text | Print | Product List | Glossary On
Versions: 1 2 3 4 5 6 7 8 9 10 11 12 13 14 15 16 17 18 19 20 21 22 23 24 25 26 27 28 29 30 31 32 33 34 35 36 37 38 39 40 41 42 43 44 45 46 47 48 49 50
000
ASUS45 KBOU 061407
RWRCO

WEATHER ROUNDUP FOR COLORADO
NATIONAL WEATHER SERVICE DENVER/BOULDER CO
800 AM MDT WED MAY 06 2015

NOTE: "FAIR" INDICATES FEW OR NO CLOUDS BELOW 12000 FEET WITH NO
SIGNIFICANT WEATHER AND/OR OBSTRUCTIONS TO VISIBILITY.

COZ001>005-013-030-031-061500-
...NORTHWEST COLORADO...

CITY           SKY/WX    TMP DP  RH WIND       PRES   REMARKS
CRAIG          LGT RAIN  48  44  86 W12       29.81S
HAYDEN         CLOUDY    46  43  87 W8        29.81R
MEEKER         LGT RAIN  46  43  89 CALM      29.83R FOG
MOUNT WERNER   NOT AVBL
STEAMBOAT SPGS CLOUDY    45  44  97 W5        29.81S
WALDEN         CLOUDY    41  37  87 NW6       29.83S
$$

COZ006>008-011-061500-
...WEST CENTRAL VALLEYS...

CITY           SKY/WX    TMP DP  RH WIND       PRES   REMARKS
GRAND JUNCTION CLOUDY    52  52 100 CALM      29.80S
MONTROSE       LGT RAIN  49  46  90 SE8       29.87R
EAGLE          LGT RAIN  43  39  87 E8        29.87S
RIFLE          LGT RAIN  48  45  89 CALM      29.83R FOG
DELTA          CLOUDY    53  52  98 SE5       29.84R
NUCLA          CLOUDY    50  46  87 E7        29.91S
$$

COZ017>023-064>068-061500-
...SOUTHWEST COLORADO...

CITY           SKY/WX    TMP DP  RH WIND       PRES   REMARKS
DURANGO        CLOUDY    47  45  93 SW10      29.93S
CORTEZ         CLOUDY    49  46  90 W5        29.92R
PAGOSA SPRINGS CLOUDY    44  44  98 SW6       29.95S
TELLURIDE      CLOUDY    37  37 100 CALM      30.00R
WOLF CREEK PAS NOT AVBL
$$

COZ009-010-012-014-032>034-037-058>063-061500-
...CENTRAL COLORADO...

CITY           SKY/WX    TMP DP  RH WIND       PRES   REMARKS
ASPEN          LGT RAIN  39  36  87 SE5       29.87F
BUENA VISTA    NOT AVBL
COPPER MTN     CLOUDY    34  30  86 W8G16     29.98R WCI  27
BERTHOUD PASS  CLOUDY    28  19  69 NW25G33   29.96R WCI  14
COTTONWOOD PAS DRIZZLE   41  36  81 W3        29.90S
GUNNISON       PTSUNNY   43  39  87 CALM      29.91S
KREMMLING      LGT RAIN  41  34  75 W15       29.86S
LEADVILLE      LGT RAIN  36  34  92 N8        29.90R
MONARCH PASS   CLOUDY    30  30 100 MISG      30.08R
SALIDA         CLOUDY    51  39  65 SW12G21   29.90R
SUNLIGHT       LGT SNOW  36  34  93 CALM      29.99R VSB 3/4
WILKERSON PASS SNOW      32  32 100 W9        29.96R VSB 1/4 WCI  24
$$

COZ069>075-061500-
...SAN LUIS VALLEY/SANGRE DE CRISTO MOUNTAINS...

CITY           SKY/WX    TMP DP  RH WIND       PRES   REMARKS
ALAMOSA        FOG       40  40 100 CALM      29.88R VSB 1/4
LA VETA PASS   CLOUDY   N/A N/A N/A MISG      29.89S
SAGUACHE       CLOUDY    43  41  93 S3        29.90S
$$

COZ035-036-038>040-061500-
...NORTHERN COLORADO FRONT RANGE...

CITY           SKY/WX    TMP DP  RH WIND       PRES   REMARKS
DENVER INTL AP LGT RAIN  50  48  93 SW8       29.71S
DMNS CITY PARK   N/A     50  49  94 S2        29.71F
AURORA         CLOUDY    49  49 100 SW2       29.73S
FRONT RANGE AP CLOUDY    50  50 100 SW8       29.72S FOG
ERIE MUNI ARPT CLOUDY    51  49  90 CALM      29.71S
BOULDER MUN AP CLOUDY    50  48  93 CALM      29.71R
CENTENNIAL     CLOUDY    49  47  93 CALM      29.73S
BROOMFIELD     CLOUDY    50  46  87 CALM      29.72S
FORT COLLINS   CLOUDY    54  46  76 N3        29.72S
LONGMONT       CLOUDY    53  49  87 W3        29.73R
$$

COZ041-046-047-076>085-087-088-061500-
...PIKES PEAK/PALMER DIVIDE AND SOUTHERN FOOTHILLS...

CITY           SKY/WX    TMP DP  RH WIND       PRES   REMARKS
COLO. SPRINGS  CLOUDY    48  46  93 E6        29.76S
A. F. ACADEMY  PTSUNNY   46  46 100 S5        29.76R
ELLICOTT       LGT RAIN N/A N/A N/A S3        29.75S
FALCON         DRIZZLE   46  45  97 S5        29.79R
FORT CARSON    CLOUDY    48  48 100 NE1       29.74S
LIMON          LGT RAIN  49  47  93 SW5       29.73S
MONUMENT HILL  DRIZZLE   45  43  93 CALM      29.76S
TRINIDAD       CLOUDY    49  45  86 SW5       29.75S
$$

COZ042>045-048>051-090-091-061500-
...NORTHEAST COLORADO...

CITY           SKY/WX    TMP DP  RH WIND       PRES   REMARKS
GREELEY ARPT     N/A    N/A N/A N/A MISG        N/A
AKRON          CLOUDY    51  51 100 SW14      29.66S
BURLINGTON     CLOUDY    50  48  93 S10       29.70S
WRAY           CLOUDY   N/A N/A N/A S9        29.68S
STERLING       CLOUDY    54  54 100 S12       29.62S FOG
HOLYOKE        NOT AVBL
FORT MORGAN    DRIZZLE   51  50  94 W8        29.67R
$$

COZ086-089-092>099-061500-
...SOUTHEAST COLORADO...

CITY           SKY/WX    TMP DP  RH WIND       PRES   REMARKS
PUEBLO         LGT RAIN  51  49  92 NE3       29.72R
LA JUNTA       CLOUDY    55  51  86 E3        29.70F
LAMAR          CLOUDY    53  51  93 CALM      29.68R
SPRINGFIELD      N/A     54  50  86 W5        29.71S
$$



USA.gov is the U.S. government's official web portal to all federal, state and local government web resources and services.